User: anonymous   Login
Location: Unspecified
(0.0000°N, 0.0000°E)
Time: 20:41:16
(UTC+00:00)
Language:

GONETS M 07 - Orbit

View from above orbital plane
View from above orbital plane
View from above satellite
View from above satellite

Ground track
Ground track

The orbit data is extracted from the following two-line orbital elements,

1 39251U 13048C   17172.65965843 +.00000010 +00000-0 +00000-0 0  9991
2 39251 082.4889 230.7750 0016834 163.4859 196.6776 12.42874001171249
Epoch (UTC): 21 June 2017 15:49:54
Eccentricity: 0.0016834
inclination: 82.4889°
perigee height: 1481 km
apogee height: 1507 km
right ascension of ascending node: 230.7750°
argument of perigee: 163.4859°
revolutions per day: 12.42874001
mean anomaly at epoch: 196.6776°
orbit number at epoch: 17124

The dashed part of the orbit path shows where the satellite is in the earth's shadow,  

DLR